[[{"header":{"parameterUnit":"m.s-1","parameterCategory":2,"la1":30.2991,"la2":30.254,"lo1":-89.0895,"lo2":-89.0444,"dy":0.0017,"dx":0.0017,"nx":28,"ny":28,"refTime":"2025-04-03T21:00:00:Z","depth":"0","parameterNumber":2,"parameterNumberName":"U-component_of_CURRENTS"},"data":[0,0,0,0,0,0,0,0,0,0,0,0,0,0,0,0,0,0,0,0,0,0,0,0,0,0,0,0,0,0,0,0,0,0,0,0,0,0,0,0,0,0,0,0,0,0,0,0,0,0,0,0,0,0,0,0,0,0,0.2218,0.2218,0,0.2222,0.2222,0.2222,0.2202,0.2202,0.2201,0.2201,0.2217,0.2218,0.2219,0,0,0,0,0,0,0,0,0,0,0,0,0,0.223,0.2229,0.2218,0.2218,0.2218,0.2222,0.2222,0.2222,0.2202,0.2202,0.2201,0.22,0.2217,0.2218,0.2219,0,0,0,0,0,0,0,0,0,0,0,0,0,0.2227,0.2229,0.2218,0.221,0.2209,0.2222,0.2222,0.2222,0.2202,0.2202,0.2201,0.22,0.2216,0.2218,0.2219,0.224,0,0,0.2223,0.2223,0,0,0,0,0,0,0,0,0.2227,0.2226,0.2211,0.221,0.221,0.2212,0.2232,0.2229,0.2202,0.2203,0.2201,0.22,0.2218,0.2219,0.2219,0.2241,0.2242,0.2223,0.2224,0.2224,0.2225,0,0,0,0,0,0,0,0.2227,0.2226,0.2218,0.2211,0.2211,0.2219,0.2217,0.2232,0.2214,0.2203,0.2202,0.2205,0.2217,0.2218,0.2219,0.2242,0.2223,0.2224,0.2225,0.2225,0.2267,0.2268,0,0,0,0,0,0,0.2228,0.2226,0.2218,0.2218,0.2219,0.2219,0.2217,0.2211,0.2213,0.2213,0.2206,0.2204,0.2216,0.2218,0.222,0.2234,0.2224,0.2226,0.2226,0.2267,0.2267,0.2268,0,0,0,0,0,0,0.2229,0.2227,0.2218,0.2224,0.2224,0.222,0.2213,0.2211,0.2215,0.2215,0.2215,0.2211,0.2216,0.2218,0.2242,0.2235,0.2226,0.2227,0.2266,0.2267,0.2267,0.227,0,0,0,0,0,0,0.2229,0.2227,0.2225,0.2224,0.2223,0.2229,0.2213,0.2212,0.2218,0.2216,0.222,0.222,0.2215,0.224,0.2243,0.2237,0.2228,0.2266,0.2267,0.2267,0.227,0.2271,0.2272,0,0,0,0,0,0.2229,0.2228,0.2224,0.2224,0.2219,0.223,0.2231,0.2225,0.2219,0.2224,0.2231,0.222,0.2245,0.2242,0.2246,0.2239,0.2266,0.2267,0.2267,0.2269,0.2271,0.2272,0,0,0,0,0,0,0.2223,0.2226,0.2222,0.2218,0.2226,0.2227,0.2233,0.2231,0.224,0.224,0.2237,0.2239,0.2248,0.2253,0.225,0.2253,0.2249,0.2251,0.2249,0.2251,0.2252,0.2258,0.2229,0,0,0,0,0,0.2223,0.2227,0.223,0.2228,0.2234,0.2236,0.2241,0.2239,0.2247,0.2249,0.2249,0.2252,0.2254,0.2262,0.2263,0.2281,0.2296,0.2276,0.2277,0.2277,0.2285,0.231,0.2314,0.227,0.227,0.227,0,0,0.2221,0.2223,0.2225,0.2229,0.2234,0.2243,0.2237,0.2248,0.2252,0.2252,0.2258,0.2257,0.226,0.2266,0.2271,0.2272,0.2298,0.2278,0.2279,0.2287,0.2312,0.2316,0.232,0.2271,0.2271,0.2271,0,0,0.2226,0.2222,0.2231,0.224,0.2253,0.2254,0.226,0.2265,0.2264,0.228,0.2269,0.2275,0.2285,0.228,0.2281,0.2296,0.2299,0.2287,0.2303,0.2326,0.233,0.2334,0.2361,0.2367,0.2291,0.2291,0.2291,0,0.2227,0.2224,0.2237,0.2248,0.2248,0.226,0.2265,0.2274,0.2283,0.2286,0.2284,0.2291,0.229,0.2297,0.2295,0.2297,0.2314,0.2296,0.2328,0.2332,0.2336,0.2362,0.2369,0.2292,0.2292,0.2292,0.2292,0,0.224,0.2235,0.2242,0.2255,0.2265,0.2269,0.2283,0.2292,0.2293,0.2298,0.2307,0.2311,0.2316,0.2308,0.2308,0.2324,0.2329,0.2322,0.2325,0.234,0.2367,0.2374,0.2292,0.2292,0.2292,0.2292,0,0,0.223,0.2248,0.2245,0.2242,0.2261,0.2266,0.2284,0.2294,0.2304,0.2317,0.2327,0.2328,0.2333,0.2335,0.2329,0.2349,0.2385,0.2349,0.2351,0.2376,0.2446,0.2451,0.2459,0.2385,0.2386,0.2387,0.2454,0,0.2227,0.2235,0.2247,0.2245,0.2244,0.2261,0.2274,0.2292,0.2307,0.2325,0.2339,0.2349,0.2342,0.2345,0.2365,0.238,0.2404,0.2368,0.2427,0.2429,0.2432,0.2467,0.2408,0.2463,0.2461,0.2462,0.2463,0,0.2216,0.2222,0.222,0.2222,0.2225,0.2233,0.2247,0.2262,0.2302,0.232,0.2347,0.2362,0.2395,0.2384,0.2439,0.2418,0.2435,0.2448,0.2451,0.2462,0.2448,0.2447,0.2476,0.2438,0.2474,0.2473,0.2472,0,0.2174,0.2188,0.2179,0.2182,0.2204,0.2206,0.2218,0.2255,0.227,0.2321,0.2346,0.2387,0.2414,0.2447,0.2485,0.2465,0.2551,0.2523,0.2545,0.2545,0.251,0.2506,0.2509,0.2562,0.2562,0.2562,0.2562,0,0.2138,0.2126,0.216,0.2151,0.2143,0.2177,0.2177,0.2205,0.2257,0.228,0.2338,0.2373,0.2433,0.2488,0.2508,0.2564,0.2574,0.2563,0.2569,0.251,0.2505,0.2482,0.2439,0.2565,0.2564,0.2564,0.2563,0,0.2075,0.2097,0.2084,0.211,0.2116,0.2109,0.2141,0.2155,0.2217,0.2254,0.2276,0.2377,0.2459,0.2521,0.2588,0.2598,0.2572,0.2652,0.2586,0.2582,0.2552,0.2511,0.2377,0.2306,0.2685,0.2686,0.2686,0,0.2036,0.2029,0.2041,0.2038,0.2045,0.2049,0.2057,0.2117,0.2147,0.225,0.2274,0.2381,0.2445,0.2572,0.2624,0.2688,0.2588,0.2658,0.2602,0.2559,0.2517,0.2359,0.2296,0.2557,0.2556,0.2556,0.2555,0,0.197,0.198,0.1979,0.1969,0.1971,0.1968,0.1993,0.2014,0.2096,0.2142,0.2225,0.229,0.2448,0.2514,0.2626,0.2648,0.2528,0.2649,0.2618,0.2435,0.2248,0.218,0.2508,0.2551,0.2552,0.2552,0.2552,0.2552,0.1923,0.1905,0.1911,0.1892,0.1894,0.1885,0.1853,0.1913,0.1942,0.1998,0.2127,0.2193,0.2381,0.254,0.2563,0.259,0.2496,0.2532,0.2494,0.2343,0.224,0.2567,0.2608,0.2608,0.2609,0.2609,0.261,0,0.1862,0.1851,0.1835,0.1803,0.1768,0.1796,0.1805,0.1771,0.1772,0.1881,0.194,0.2112,0.224,0.2385,0.2513,0.2456,0.2309,0.239,0.2159,0.2113,0.2441,0.2406,0.2388,0.2388,0.2388,0.2388,0.2388,0.2388,0.1833,0.1791,0.1773,0.1684,0.166,0.1578,0.1559,0.1544,0.1589,0.1639,0.1721,0.1838,0.21,0.232,0.2372,0.232,0.2131,0.2019,0.1986,0.2253,0.2263,0.2272,0.2231,0.2178,0.2177,0.1577,0.1573,0.157]},{"header":{"parameterUnit":"m.s-1","parameterCategory":2,"la1":30.2991,"la2":30.254,"lo1":-89.0895,"lo2":-89.0444,"dy":0.0017,"dx":0.0017,"nx":28,"ny":28,"refTime":"2025-04-03T21:00:00:Z","depth":"0","parameterNumber":3,"parameterNumberName":"V-component_of_CURRENTS"},"data":[0,0,0,0,0,0,0,0,0,0,0,0,0,0,0,0,0,0,0,0,0,0,0,0,0,0,0,0,0,0,0,0,0,0,0,0,0,0,0,0,0,0,0,0,0,0,0,0,0,0,0,0,0,0,0,0,0,0,0.0027,0.0027,0,-0.003,-0.0031,-0.0032,-0.0069,-0.0069,-0.0069,-0.0069,-0.0172,-0.0175,-0.0178,0,0,0,0,0,0,0,0,0,0,0,0,0,0.0082,0.0081,0.0027,0.0027,0.0026,-0.003,-0.0031,-0.0032,-0.0069,-0.0069,-0.0069,-0.0069,-0.0172,-0.0175,-0.0178,0,0,0,0,0,0,0,0,0,0,0,0,0,0.0044,0.0081,0.0027,0.0002,-0.0001,-0.003,-0.0031,-0.0032,-0.0069,-0.0069,-0.0069,-0.0069,-0.017,-0.0174,-0.0178,-0.02,0,0,-0.0191,-0.0192,0,0,0,0,0,0,0,0,0.0046,0.0042,0.0006,0.0004,0.0,-0.0041,-0.005,-0.009,-0.0068,-0.0044,-0.0069,-0.0069,-0.0132,-0.0139,-0.0151,-0.0205,-0.0209,-0.0191,-0.0193,-0.0195,-0.0196,0,0,0,0,0,0,0,0.0049,0.0044,0.0003,0.0006,0.0002,-0.0014,-0.002,-0.0057,-0.0088,-0.0046,-0.0049,-0.0053,-0.0134,-0.0147,-0.0154,-0.0211,-0.0191,-0.0194,-0.0197,-0.0198,-0.0269,-0.0268,0,0,0,0,0,0,0.006,0.0046,0.0005,0.0001,0.0025,-0.0015,-0.0021,-0.0029,-0.0087,-0.0095,-0.0053,-0.0055,-0.014,-0.0149,-0.0157,-0.0168,-0.0195,-0.0199,-0.0201,-0.0269,-0.0269,-0.0268,0,0,0,0,0,0,0.0061,0.0056,0.0007,0.0024,0.0017,-0.0015,-0.0024,-0.003,-0.004,-0.0091,-0.0101,-0.0056,-0.014,-0.0152,-0.0175,-0.0173,-0.02,-0.0204,-0.027,-0.0269,-0.0269,-0.0201,0,0,0,0,0,0,0.0063,0.0057,0.0057,0.0025,0.0016,-0.0002,-0.0024,-0.0031,-0.0041,-0.0044,-0.0097,-0.0107,-0.0141,-0.0169,-0.0179,-0.0179,-0.0207,-0.0271,-0.027,-0.0269,-0.0204,-0.0198,-0.0193,0,0,0,0,0,0.0065,0.0066,0.0057,0.0052,0.0016,-0.0002,-0.0008,-0.0032,-0.0041,-0.0042,-0.007,-0.0105,-0.017,-0.0172,-0.0184,-0.0185,-0.0271,-0.027,-0.0269,-0.0207,-0.0199,-0.0193,0,0,0,0,0,0,0.0089,0.0062,0.0051,0.0043,0.0026,-0.0007,-0.001,-0.0026,-0.005,-0.0052,-0.0099,-0.011,-0.0131,-0.0164,-0.0164,-0.0201,-0.0227,-0.0228,-0.0176,-0.0169,-0.0164,-0.0148,-0.0211,0,0,0,0,0,0.0095,0.0089,0.0062,0.0057,0.0051,0.0022,0.0012,-0.0004,-0.0029,-0.0039,-0.0073,-0.0108,-0.0137,-0.0156,-0.0188,-0.021,-0.0234,-0.0218,-0.0212,-0.0207,-0.0202,-0.0228,-0.0224,-0.0264,-0.0264,-0.0264,0,0,0.0104,0.0088,0.0085,0.0063,0.0047,0.0045,0.0016,0.0005,0.0003,-0.0048,-0.0059,-0.0092,-0.0137,-0.0156,-0.0169,-0.0184,-0.0207,-0.0206,-0.0201,-0.0199,-0.0226,-0.0222,-0.0218,-0.0264,-0.0264,-0.0264,0,0,0.0125,0.0105,0.0111,0.01,0.0081,0.0063,0.0064,0.0036,0.0023,0.0007,-0.0025,-0.0048,-0.0099,-0.0124,-0.0145,-0.0129,-0.0175,-0.0145,-0.011,-0.0134,-0.0131,-0.0129,-0.0147,-0.0147,-0.0145,-0.0145,-0.0145,0,0.0139,0.0139,0.0111,0.0116,0.0113,0.0077,0.0087,0.0068,0.0036,0.0031,0.0012,-0.0043,-0.0082,-0.01,-0.0094,-0.0117,-0.0137,-0.013,-0.0126,-0.0125,-0.0123,-0.0143,-0.0144,-0.0141,-0.0142,-0.0142,-0.0142,0,0.0166,0.0165,0.0169,0.0163,0.0156,0.0157,0.0132,0.0123,0.0102,0.0082,0.0062,0.0014,-0.0017,-0.0035,-0.0063,-0.0071,-0.0089,-0.0113,-0.0141,-0.0115,-0.0138,-0.0139,-0.0137,-0.0138,-0.0139,-0.014,0,0,0.0204,0.0191,0.0194,0.0202,0.0182,0.0182,0.018,0.017,0.0176,0.0136,0.0139,0.0088,0.0063,0.0038,-0.0001,-0.0025,-0.0033,-0.0061,-0.0064,-0.0074,-0.0082,-0.0081,-0.0084,-0.0057,-0.0057,-0.0057,-0.0099,0,0.0238,0.0257,0.0241,0.0264,0.0273,0.0245,0.0249,0.0234,0.0213,0.0205,0.0154,0.0138,0.009,0.0078,0.0047,-0.001,-0.0035,-0.0019,-0.011,-0.0113,-0.0111,-0.0085,-0.0041,-0.0074,-0.0102,-0.0102,-0.0102,0,0.0277,0.0283,0.0309,0.0317,0.032,0.0326,0.0332,0.033,0.0304,0.0287,0.0258,0.0219,0.0182,0.0134,0.0051,0.0064,-0.0001,-0.0051,-0.0054,-0.0078,-0.0115,-0.0106,-0.0076,-0.0156,-0.0105,-0.0105,-0.0105,0,0.0325,0.0337,0.0359,0.036,0.0359,0.0369,0.0368,0.0355,0.0367,0.0338,0.0344,0.0285,0.0263,0.0178,0.0079,0.0064,-0.0014,-0.0051,-0.0112,-0.0113,-0.0105,-0.0105,-0.0159,-0.0111,-0.0111,-0.0111,-0.0111,0,0.0367,0.0388,0.0382,0.0394,0.0427,0.0412,0.0443,0.0432,0.0433,0.0456,0.039,0.0399,0.0273,0.0215,0.0109,0.0005,0.0008,-0.0096,-0.0121,-0.008,-0.0077,-0.0172,-0.0235,-0.0113,-0.0112,-0.0112,-0.0112,0,0.0409,0.0406,0.0435,0.0442,0.0447,0.0468,0.0492,0.0517,0.0508,0.0537,0.0535,0.0489,0.0416,0.0293,0.0159,0.0056,-0.0103,-0.0096,-0.0034,-0.005,-0.0185,-0.0246,-0.0332,-0.0406,-0.0169,-0.0169,-0.0169,0,0.0432,0.0448,0.047,0.049,0.0492,0.0519,0.0542,0.0547,0.0582,0.0597,0.0623,0.0572,0.055,0.0364,0.0187,0.0017,-0.0098,-0.0078,-0.0104,-0.0176,-0.0263,-0.0297,-0.0358,-0.0069,-0.0068,-0.0067,-0.0067,0,0.0472,0.0477,0.0497,0.0535,0.0563,0.0599,0.0636,0.0678,0.0694,0.0729,0.0766,0.0756,0.06,0.0471,0.024,0.0102,-0.013,-0.0073,-0.0163,-0.0197,-0.0222,-0.031,-0.006,-0.0062,-0.0062,-0.0063,-0.0063,-0.0063,0.0502,0.052,0.0544,0.058,0.0619,0.067,0.0705,0.0761,0.0825,0.0888,0.0884,0.0908,0.0734,0.0441,0.023,-0.0071,-0.0108,-0.0157,-0.0227,-0.0257,-0.0319,-0.0053,-0.0075,-0.0076,-0.0076,-0.0077,-0.0077,0,0.0532,0.0549,0.0587,0.063,0.0675,0.0688,0.0762,0.0803,0.0881,0.0978,0.1024,0.1019,0.0775,0.0492,0.0109,-0.0148,-0.0277,-0.0295,-0.0333,-0.0396,-0.016,-0.0145,-0.0162,-0.0162,-0.0162,-0.0162,-0.0162,-0.0162,0.055,0.0583,0.0594,0.0663,0.0697,0.0751,0.079,0.0861,0.0947,0.1071,0.1158,0.1213,0.1103,0.0415,-0.0085,-0.0266,-0.0485,-0.0504,-0.0648,-0.0472,-0.0464,-0.0456,-0.0456,-0.0538,-0.0538,-0.0832,-0.0835,-0.0837]}],[{"header":{"parameterUnit":"m.s-1","parameterCategory":2,"la1":30.2991,"la2":30.254,"lo1":-89.0895,"lo2":-89.0444,"dy":0.0017,"dx":0.0017,"nx":28,"ny":28,"refTime":"2025-04-03T21:00:00:Z","depth":"2","parameterNumber":2,"parameterNumberName":"U-component_of_CURRENTS"},"data":[0,0,0,0,0,0,0,0,0,0,0,0,0,0,0,0,0,0,0,0,0,0,0,0,0,0,0,0,0,0,0,0,0,0,0,0,0,0,0,0,0,0,0,0,0,0,0,0,0,0,0,0,0,0,0,0,0,0,0.2233,0.2233,0,0.2235,0.2235,0.2235,0.2219,0.2218,0.2218,0.2218,0.2249,0.225,0.2251,0,0,0,0,0,0,0,0,0,0,0,0,0,0.2247,0.2247,0.2233,0.2233,0.2233,0.2235,0.2235,0.2235,0.2219,0.2218,0.2218,0.2218,0.2248,0.225,0.2251,0,0,0,0,0,0,0,0,0,0,0,0,0,0.2243,0.2247,0.2233,0.2226,0.2226,0.2235,0.2235,0.2235,0.2219,0.2218,0.2218,0.2217,0.2248,0.225,0.2251,0.2272,0,0,0.2256,0.2257,0,0,0,0,0,0,0,0,0.2243,0.2242,0.2227,0.2227,0.2226,0.2227,0.2252,0.2249,0.2219,0.222,0.2218,0.2217,0.2246,0.2248,0.2247,0.2273,0.2274,0.2257,0.2258,0.2258,0.2259,0,0,0,0,0,0,0,0.2243,0.2242,0.2232,0.2227,0.2227,0.2235,0.2233,0.2251,0.2235,0.222,0.2219,0.2222,0.2245,0.2245,0.2247,0.2275,0.2257,0.2258,0.2259,0.226,0.2305,0.2306,0,0,0,0,0,0,0.2245,0.2242,0.2232,0.2232,0.2235,0.2235,0.2233,0.2226,0.2234,0.2235,0.2222,0.2221,0.2242,0.2245,0.2248,0.2267,0.2258,0.226,0.2261,0.2305,0.2306,0.2306,0,0,0,0,0,0,0.2245,0.2244,0.2232,0.2239,0.2239,0.2235,0.2228,0.2227,0.2229,0.2236,0.2237,0.2227,0.2242,0.2246,0.2273,0.2268,0.2261,0.2262,0.2305,0.2305,0.2306,0.2309,0,0,0,0,0,0,0.2245,0.2243,0.2239,0.2239,0.2238,0.2241,0.2228,0.2227,0.2233,0.2231,0.224,0.2242,0.2242,0.227,0.2274,0.2271,0.2264,0.2305,0.2305,0.2306,0.2308,0.2309,0.231,0,0,0,0,0,0.2246,0.2242,0.2239,0.2238,0.2232,0.2242,0.2242,0.2238,0.2233,0.2238,0.2247,0.2242,0.2274,0.2273,0.2277,0.2274,0.2305,0.2305,0.2306,0.2308,0.2309,0.231,0,0,0,0,0,0,0.2236,0.224,0.2236,0.2231,0.2238,0.224,0.2246,0.2243,0.2253,0.2256,0.2257,0.2261,0.2274,0.2281,0.2279,0.2287,0.2284,0.2285,0.2284,0.2285,0.2286,0.2293,0.2265,0,0,0,0,0,0.2235,0.224,0.2242,0.2239,0.2245,0.2248,0.2251,0.2251,0.226,0.2263,0.2267,0.2274,0.2279,0.2289,0.2294,0.2315,0.233,0.2311,0.2312,0.2312,0.2321,0.2345,0.2349,0.2307,0.2307,0.2307,0,0,0.2233,0.2235,0.2238,0.224,0.2246,0.2255,0.2248,0.226,0.2265,0.2268,0.2278,0.2279,0.2284,0.2294,0.2301,0.2303,0.2332,0.2313,0.2313,0.2322,0.2346,0.2351,0.2354,0.2307,0.2307,0.2307,0,0,0.2239,0.2233,0.2245,0.2252,0.2265,0.2267,0.2273,0.2279,0.2279,0.2297,0.2288,0.2296,0.231,0.2308,0.231,0.2324,0.2331,0.2316,0.2332,0.2356,0.236,0.2363,0.2389,0.2395,0.2321,0.2321,0.2321,0,0.224,0.2236,0.225,0.2262,0.2262,0.2273,0.2279,0.2288,0.23,0.2303,0.2302,0.2313,0.2316,0.2325,0.2323,0.2325,0.2342,0.2328,0.2357,0.2361,0.2365,0.239,0.2397,0.2321,0.2321,0.2321,0.2321,0,0.2255,0.225,0.2258,0.2273,0.2281,0.2287,0.2301,0.2311,0.2313,0.2318,0.2329,0.2335,0.2342,0.2335,0.2336,0.2353,0.2358,0.2351,0.2356,0.2369,0.2395,0.2402,0.2322,0.2322,0.2322,0.2321,0,0,0.2248,0.2266,0.2263,0.2261,0.228,0.2285,0.2305,0.2315,0.2325,0.234,0.235,0.2355,0.2359,0.2362,0.2357,0.2378,0.2413,0.2378,0.2379,0.2405,0.2472,0.2474,0.2482,0.2413,0.2414,0.2415,0.248,0,0.2246,0.2256,0.2267,0.2268,0.2267,0.2283,0.2297,0.2315,0.2331,0.235,0.2364,0.2375,0.2369,0.2372,0.2392,0.2408,0.2431,0.2396,0.2454,0.2456,0.2458,0.249,0.2248,0.2286,0.2486,0.2488,0.2488,0,0.2238,0.2244,0.2243,0.2245,0.2249,0.2258,0.2272,0.2288,0.2328,0.2346,0.2373,0.2389,0.2421,0.2411,0.2465,0.2445,0.2461,0.2474,0.2477,0.2485,0.2471,0.2305,0.229,0.25,0.2499,0.2498,0.2497,0,0.2196,0.2211,0.2203,0.2206,0.2229,0.2232,0.2245,0.2281,0.2297,0.2347,0.2372,0.2414,0.2441,0.2472,0.2511,0.2491,0.2574,0.2548,0.2566,0.2567,0.2376,0.2358,0.2586,0.2586,0.2586,0.2586,0.2586,0,0.2162,0.215,0.2184,0.2176,0.2169,0.2203,0.2204,0.2233,0.2285,0.2308,0.2365,0.2399,0.2459,0.2513,0.2533,0.2586,0.2597,0.2584,0.2589,0.2371,0.2353,0.2547,0.2542,0.2588,0.2588,0.2587,0.2587,0,0.2099,0.2122,0.2109,0.2136,0.2142,0.2137,0.217,0.2184,0.2245,0.2283,0.2304,0.2404,0.2483,0.2544,0.261,0.2618,0.266,0.267,0.2421,0.2396,0.2629,0.2623,0.2697,0.2698,0.2698,0.2699,0.2699,0,0.2061,0.2055,0.2068,0.2066,0.2072,0.2078,0.2086,0.2147,0.2176,0.2278,0.2302,0.2407,0.2464,0.2587,0.2599,0.265,0.2697,0.2479,0.24,0.2645,0.2643,0.2636,0.2629,0.2139,0.2135,0.2131,0.2129,0,0.1996,0.2007,0.2006,0.1998,0.2,0.1998,0.2024,0.2044,0.2126,0.2169,0.2249,0.2308,0.2425,0.2385,0.2477,0.2469,0.2454,0.2416,0.2723,0.2169,0.213,0.2124,0.2133,0.2098,0.2101,0.2103,0.2105,0.2106,0.1951,0.1933,0.194,0.1921,0.1924,0.1917,0.1885,0.194,0.1965,0.2006,0.2126,0.2142,0.2201,0.2226,0.2186,0.2164,0.2341,0.2238,0.2243,0.2253,0.2197,0.2164,0.2127,0.213,0.2133,0.2135,0.2138,0,0.1887,0.188,0.1865,0.1834,0.18,0.1828,0.1838,0.1806,0.1797,0.1869,0.1901,0.1798,0.1784,0.1854,0.1768,0.1813,0.1731,0.1751,0.1602,0.1636,0.1665,0.1573,0.1341,0.1338,0.1336,0.1334,0,0,0.1859,0.1816,0.1799,0.1715,0.1694,0.1621,0.1603,0.1586,0.1611,0.1591,0.1578,0.1684,0.1797,0.1533,0.1516,0.1411,0.1502,0.1354,0.1994,0.185,0.1876,0.1955,0.1854,0,0,0,0,0]},{"header":{"parameterUnit":"m.s-1","parameterCategory":2,"la1":30.2991,"la2":30.254,"lo1":-89.0895,"lo2":-89.0444,"dy":0.0017,"dx":0.0017,"nx":28,"ny":28,"refTime":"2025-04-03T21:00:00:Z","depth":"2","parameterNumber":3,"parameterNumberName":"V-component_of_CURRENTS"},"data":[0,0,0,0,0,0,0,0,0,0,0,0,0,0,0,0,0,0,0,0,0,0,0,0,0,0,0,0,0,0,0,0,0,0,0,0,0,0,0,0,0,0,0,0,0,0,0,0,0,0,0,0,0,0,0,0,0,0,-0.0012,-0.0012,0,-0.007,-0.007,-0.0071,-0.0106,-0.0106,-0.0106,-0.0106,-0.0206,-0.0209,-0.0212,0,0,0,0,0,0,0,0,0,0,0,0,0,0.0044,0.0043,-0.0012,-0.0012,-0.0013,-0.007,-0.007,-0.0071,-0.0106,-0.0106,-0.0106,-0.0106,-0.0206,-0.0209,-0.0212,0,0,0,0,0,0,0,0,0,0,0,0,0,0.0005,0.0043,-0.0012,-0.0036,-0.0039,-0.0069,-0.0071,-0.0072,-0.0106,-0.0106,-0.0106,-0.0106,-0.0205,-0.0208,-0.0212,-0.0235,0,0,-0.0224,-0.0226,0,0,0,0,0,0,0,0,0.0007,0.0003,-0.0032,-0.0035,-0.0038,-0.008,-0.0087,-0.0128,-0.0106,-0.0082,-0.0106,-0.0106,-0.0167,-0.0174,-0.0186,-0.024,-0.0244,-0.0225,-0.0227,-0.0229,-0.023,0,0,0,0,0,0,0,0.001,0.0005,-0.0036,-0.0033,-0.0036,-0.0053,-0.0058,-0.0095,-0.0125,-0.0084,-0.0086,-0.0091,-0.0169,-0.0182,-0.0189,-0.0246,-0.0224,-0.0228,-0.023,-0.0232,-0.0301,-0.0301,0,0,0,0,0,0,0.0021,0.0008,-0.0034,-0.0038,-0.0013,-0.0053,-0.006,-0.0067,-0.0124,-0.0132,-0.0091,-0.0092,-0.0175,-0.0184,-0.0192,-0.0202,-0.0229,-0.0232,-0.0235,-0.0302,-0.0301,-0.03,0,0,0,0,0,0,0.0023,0.0018,-0.0032,-0.0015,-0.0022,-0.0054,-0.0062,-0.0068,-0.0078,-0.0128,-0.0137,-0.0094,-0.0176,-0.0187,-0.0214,-0.0207,-0.0234,-0.0238,-0.0302,-0.0301,-0.0301,-0.0234,0,0,0,0,0,0,0.0024,0.0019,0.0017,-0.0014,-0.0023,-0.0042,-0.0062,-0.0069,-0.008,-0.0083,-0.0134,-0.0144,-0.0177,-0.0207,-0.0218,-0.0213,-0.0241,-0.0303,-0.0302,-0.0301,-0.0237,-0.0231,-0.0226,0,0,0,0,0,0.0027,0.0027,0.0017,0.0012,-0.0024,-0.0042,-0.0047,-0.0071,-0.008,-0.0081,-0.0111,-0.0142,-0.0208,-0.021,-0.0222,-0.0218,-0.0303,-0.0302,-0.0301,-0.0239,-0.0232,-0.0226,0,0,0,0,0,0,0.0049,0.0023,0.0011,0.0003,-0.0014,-0.0047,-0.0049,-0.0066,-0.0091,-0.0093,-0.0139,-0.0151,-0.017,-0.0203,-0.0203,-0.0234,-0.026,-0.0261,-0.0209,-0.0203,-0.0197,-0.0182,-0.0244,0,0,0,0,0,0.0054,0.0049,0.0021,0.0017,0.001,-0.0018,-0.0028,-0.0044,-0.0069,-0.008,-0.0113,-0.0148,-0.0176,-0.0195,-0.0225,-0.0246,-0.0271,-0.025,-0.0245,-0.024,-0.0235,-0.0261,-0.0258,-0.0297,-0.0297,-0.0297,0,0,0.0062,0.0047,0.0045,0.0022,0.0006,0.0004,-0.0025,-0.0034,-0.0036,-0.0088,-0.0099,-0.0131,-0.0176,-0.0194,-0.0206,-0.0221,-0.024,-0.0238,-0.0234,-0.0232,-0.026,-0.0256,-0.0253,-0.0296,-0.0296,-0.0296,0,0,0.0085,0.0064,0.0071,0.0059,0.0041,0.0023,0.0025,-0.0003,-0.0015,-0.0033,-0.0065,-0.0087,-0.0137,-0.0161,-0.0181,-0.0166,-0.0209,-0.0178,-0.0143,-0.0168,-0.0165,-0.0163,-0.0182,-0.0182,-0.0178,-0.0177,-0.0177,0,0.0099,0.0098,0.0072,0.0076,0.0072,0.0037,0.0047,0.0028,-0.0004,-0.0009,-0.0027,-0.0081,-0.0119,-0.0138,-0.0131,-0.0154,-0.0174,-0.0164,-0.0161,-0.0159,-0.0158,-0.0178,-0.0178,-0.0174,-0.0175,-0.0175,-0.0175,0,0.0126,0.0125,0.013,0.0124,0.0117,0.0118,0.0093,0.0085,0.0065,0.0044,0.0024,-0.0024,-0.0055,-0.007,-0.0099,-0.0106,-0.0124,-0.0148,-0.0175,-0.015,-0.0172,-0.0174,-0.0169,-0.0171,-0.0172,-0.0172,0,0,0.0167,0.0153,0.0156,0.0162,0.0142,0.0142,0.014,0.013,0.0135,0.0097,0.0098,0.005,0.0025,0.0,-0.0038,-0.0062,-0.007,-0.0097,-0.01,-0.0111,-0.012,-0.012,-0.0122,-0.0094,-0.0094,-0.0094,-0.0137,0,0.02,0.0218,0.0202,0.0224,0.0232,0.0204,0.0208,0.0192,0.0171,0.0163,0.0113,0.0097,0.005,0.004,0.0008,-0.0048,-0.0074,-0.0056,-0.0148,-0.015,-0.0149,-0.0124,-0.0128,-0.0166,-0.0139,-0.0139,-0.014,0,0.0239,0.0244,0.0268,0.0274,0.0277,0.0283,0.0287,0.0285,0.0259,0.0242,0.0213,0.0175,0.0138,0.0093,0.001,0.0023,-0.0041,-0.009,-0.0093,-0.0118,-0.0153,-0.0189,-0.0171,-0.0144,-0.0143,-0.0143,-0.0143,0,0.0285,0.0296,0.0317,0.0317,0.0315,0.0324,0.0323,0.0309,0.032,0.0292,0.0298,0.0239,0.0217,0.0133,0.0036,0.0022,-0.0056,-0.0092,-0.0152,-0.0153,-0.0188,-0.0191,-0.0153,-0.0153,-0.0152,-0.0152,-0.0152,0,0.0326,0.0346,0.0339,0.0351,0.0381,0.0366,0.0396,0.0385,0.0385,0.0407,0.0342,0.035,0.0227,0.0168,0.0064,-0.0038,-0.0036,-0.0138,-0.0162,-0.0163,-0.0164,-0.0173,-0.0175,-0.0154,-0.0154,-0.0153,-0.0153,0,0.0367,0.0363,0.039,0.0396,0.0401,0.0422,0.0444,0.0468,0.0459,0.0486,0.0485,0.0438,0.0366,0.0245,0.0112,0.0011,-0.0097,-0.0139,-0.0126,-0.0147,-0.0188,-0.0186,-0.0211,-0.0212,-0.0212,-0.0212,-0.0212,0,0.0389,0.0404,0.0425,0.0445,0.0446,0.0472,0.0495,0.0499,0.0532,0.0545,0.057,0.0519,0.0493,0.0308,0.0121,-0.0051,-0.0077,-0.0173,-0.0205,-0.0172,-0.0193,-0.019,-0.0188,-0.0227,-0.0227,-0.0227,-0.0227,0,0.0427,0.0432,0.0451,0.0489,0.0517,0.0551,0.0587,0.0627,0.0642,0.067,0.0705,0.069,0.0525,0.0352,0.0117,-0.0008,-0.0146,-0.0182,-0.0154,-0.0203,-0.0188,-0.0208,-0.0205,-0.0229,-0.0229,-0.0229,-0.0229,-0.0229,0.0457,0.0474,0.0498,0.0534,0.0571,0.0621,0.0654,0.0684,0.0738,0.075,0.0774,0.0718,0.0565,0.0244,0.0069,-0.0144,-0.014,-0.0237,-0.0236,-0.0235,-0.0221,-0.0206,-0.0249,-0.0249,-0.0249,-0.0249,-0.0249,0,0.0476,0.0503,0.0541,0.0582,0.0613,0.0639,0.0711,0.0707,0.0744,0.0756,0.0758,0.0594,0.0432,0.025,-0.006,-0.0222,-0.0247,-0.0281,-0.0278,-0.0275,-0.0273,-0.0261,-0.03,-0.03,-0.03,-0.0301,0,0,0.0491,0.0517,0.0528,0.0588,0.0632,0.0653,0.0691,0.0685,0.0683,0.0656,0.0629,0.061,0.0447,0.0217,0.0014,-0.0152,-0.0188,-0.0192,-0.0139,-0.0112,-0.0108,-0.0238,-0.0215,0,0,0,0,0]}],[{"header":{"parameterUnit":"m.s-1","parameterCategory":2,"la1":30.2991,"la2":30.254,"lo1":-89.0895,"lo2":-89.0444,"dy":0.0017,"dx":0.0017,"nx":28,"ny":28,"refTime":"2025-04-03T21:00:00:Z","depth":"4","parameterNumber":2,"parameterNumberName":"U-component_of_CURRENTS"},"data":[0,0,0,0,0,0,0,0,0,0,0,0,0,0,0,0,0,0,0,0,0,0,0,0,0,0,0,0,0,0,0,0,0,0,0,0,0,0,0,0,0,0,0,0,0,0,0,0,0,0,0,0,0,0,0,0,0,0,0.1459,0.146,0,0.1496,0.1496,0.1497,0.1532,0.1532,0.1533,0.1534,0.1545,0.1544,0.1544,0,0,0,0,0,0,0,0,0,0,0,0,0,0.1379,0.138,0.1459,0.146,0.146,0.1496,0.1496,0.1497,0.1532,0.1532,0.1533,0.1534,0.1545,0.1544,0.1544,0,0,0,0,0,0,0,0,0,0,0,0,0,0.1413,0.1381,0.1459,0.1483,0.1486,0.1496,0.1496,0.1497,0.1532,0.1532,0.1533,0.1534,0.1545,0.1544,0.1544,0.1525,0,0,0.1543,0.1543,0,0,0,0,0,0,0,0,0.1411,0.1416,0.1479,0.1481,0.1484,0.1512,0.1472,0.1505,0.1531,0.1513,0.1534,0.1535,0.1531,0.1532,0.1536,0.1525,0.1526,0.1543,0.1543,0.1543,0.1542,0,0,0,0,0,0,0,0.1409,0.1414,0.1472,0.1479,0.1483,0.1478,0.1485,0.1479,0.1515,0.1514,0.1517,0.1523,0.1533,0.1536,0.1536,0.1526,0.1543,0.1543,0.1542,0.1542,0.1624,0.1626,0,0,0,0,0,0,0.1409,0.1412,0.1471,0.1473,0.1451,0.1479,0.1486,0.1501,0.1516,0.152,0.1523,0.1525,0.1536,0.1536,0.1537,0.16,0.1543,0.1542,0.1542,0.1621,0.1624,0.1627,0,0,0,0,0,0,0.1407,0.1414,0.147,0.1444,0.1451,0.148,0.1496,0.1501,0.1536,0.1523,0.1526,0.1557,0.1537,0.1537,0.1566,0.1598,0.1542,0.1542,0.1619,0.1622,0.1626,0.1672,0,0,0,0,0,0,0.1404,0.1413,0.1437,0.1445,0.1453,0.15,0.1496,0.1501,0.1537,0.1542,0.1552,0.1552,0.1537,0.1567,0.1566,0.1596,0.1541,0.1615,0.162,0.1624,0.1668,0.1677,0.1685,0,0,0,0,0,0.1402,0.1427,0.1438,0.1446,0.1481,0.1501,0.1506,0.1527,0.1539,0.1561,0.1573,0.1554,0.1596,0.1568,0.1567,0.1597,0.1613,0.1619,0.1624,0.1664,0.1675,0.1685,0,0,0,0,0,0,0.141,0.1433,0.1446,0.1479,0.1501,0.1508,0.1532,0.1545,0.1572,0.1584,0.1572,0.1573,0.1616,0.1605,0.1576,0.164,0.1606,0.1611,0.1637,0.1648,0.1656,0.1649,0.1541,0,0,0,0,0,0.1421,0.1445,0.1465,0.1495,0.1508,0.1526,0.1543,0.1559,0.1576,0.1591,0.1599,0.1614,0.1631,0.1639,0.1651,0.1673,0.1668,0.1699,0.1708,0.1715,0.1712,0.1738,0.1748,0.1644,0.1644,0.1644,0,0,0.1432,0.1449,0.1464,0.1499,0.1516,0.1536,0.1539,0.1575,0.1598,0.1585,0.1629,0.1645,0.1647,0.1681,0.1699,0.1677,0.1746,0.1721,0.1727,0.172,0.1744,0.1754,0.1762,0.1648,0.1647,0.1647,0,0,0.1446,0.1483,0.15,0.1521,0.1556,0.1567,0.1585,0.1614,0.1639,0.1674,0.1682,0.1718,0.1736,0.1747,0.1751,0.1815,0.1795,0.1832,0.1859,0.1884,0.1892,0.1899,0.1914,0.1922,0.183,0.183,0.183,0,0.1458,0.1486,0.151,0.1531,0.1552,0.1584,0.1607,0.1632,0.167,0.1692,0.1699,0.1759,0.1763,0.18,0.1829,0.1831,0.1841,0.1812,0.1893,0.1899,0.1905,0.1919,0.1927,0.1833,0.1833,0.1832,0.1832,0,0.1471,0.1508,0.1523,0.1557,0.1584,0.1616,0.1647,0.1687,0.1721,0.1742,0.1805,0.1821,0.1853,0.1872,0.1865,0.1921,0.1914,0.1902,0.1857,0.1918,0.193,0.1937,0.1837,0.1836,0.1835,0.1834,0,0,0.1457,0.1519,0.1529,0.1553,0.1606,0.1625,0.1674,0.1719,0.1755,0.1805,0.1848,0.1895,0.1917,0.1926,0.1938,0.1961,0.2017,0.1954,0.1954,0.1953,0.2075,0.1952,0.1947,0.2021,0.2023,0.2024,0.2068,0,0.1462,0.1506,0.1537,0.1585,0.161,0.1658,0.1696,0.1746,0.179,0.1841,0.1881,0.1929,0.1933,0.1961,0.1989,0.2014,0.2038,0.2006,0.203,0.2031,0.19,0.1952,0.2029,0.2073,0.2075,0.2076,0.2077,0,0.1458,0.1491,0.1539,0.1604,0.162,0.1655,0.1727,0.1767,0.184,0.1876,0.1932,0.1964,0.2022,0.2013,0.2079,0.2062,0.2076,0.2086,0.2088,0.1956,0.1919,0.2001,0.2089,0.2088,0.2087,0.2087,0.2086,0,0.1425,0.1492,0.1533,0.1556,0.163,0.1668,0.1714,0.1785,0.1823,0.1907,0.1941,0.2009,0.2053,0.2087,0.212,0.2109,0.2178,0.2159,0.206,0.2052,0.2127,0.2119,0.22,0.22,0.22,0.22,0.22,0,0.1405,0.1442,0.1528,0.1549,0.1599,0.1662,0.1719,0.1773,0.1849,0.1887,0.1963,0.1994,0.2077,0.2122,0.2139,0.212,0.2196,0.2068,0.2055,0.2148,0.2143,0.2132,0.2123,0.2201,0.2201,0.2201,0.2201,0,0.1357,0.1416,0.1466,0.1556,0.1585,0.1624,0.1712,0.1748,0.1832,0.1884,0.1915,0.2006,0.2059,0.212,0.2178,0.2128,0.2131,0.2105,0.2209,0.2201,0.1983,0.1977,0.1989,0.1984,0.1981,0.1978,0.1976,0,0.1332,0.1358,0.1457,0.1487,0.1532,0.1597,0.1636,0.1728,0.1762,0.1869,0.1884,0.1972,0.2018,0.1994,0.2075,0.2094,0.2075,0.2059,0.201,0.1975,0.1962,0.1961,0.196,0.197,0.197,0.1969,0.1968,0,0.1284,0.1335,0.1378,0.1436,0.1487,0.1527,0.1594,0.1602,0.17,0.1789,0.1795,0.1815,0.187,0.1909,0.1941,0.1953,0.2057,0.2023,0.203,0.1983,0.1953,0.1943,0.1946,0.1956,0.1958,0.1959,0.196,0,0.1252,0.1268,0.1331,0.1369,0.143,0.1442,0.1482,0.1511,0.1547,0.166,0.1659,0.1749,0.1841,0.1837,0.1869,0.187,0.1841,0.1777,0.1796,0.181,0.1733,0.1667,0.1572,0,0,0,0,0,0.1211,0.1219,0.1255,0.1288,0.1343,0.1375,0.1447,0.1488,0.1576,0.1534,0.1587,0.1623,0.1647,0.1703,0.1671,0.1817,0.1869,0.1773,0.1809,0.1891,0.1904,0.1832,0,0,0,0,0,0,0.1183,0.122,0.1226,0.1212,0.1219,0.1261,0.1304,0.1364,0.1343,0.1437,0.146,0.153,0.1588,0.1648,0.164,0.166,0.165,0.1837,0.1833,0.1883,0.1896,0.1906,0.1836,0,0,0,0,0]},{"header":{"parameterUnit":"m.s-1","parameterCategory":2,"la1":30.2991,"la2":30.254,"lo1":-89.0895,"lo2":-89.0444,"dy":0.0017,"dx":0.0017,"nx":28,"ny":28,"refTime":"2025-04-03T21:00:00:Z","depth":"4","parameterNumber":3,"parameterNumberName":"V-component_of_CURRENTS"},"data":[0,0,0,0,0,0,0,0,0,0,0,0,0,0,0,0,0,0,0,0,0,0,0,0,0,0,0,0,0,0,0,0,0,0,0,0,0,0,0,0,0,0,0,0,0,0,0,0,0,0,0,0,0,0,0,0,0,0,-0.0023,-0.0024,0,-0.0053,-0.0054,-0.0054,-0.0078,-0.0078,-0.0078,-0.0079,-0.0112,-0.0112,-0.0113,0,0,0,0,0,0,0,0,0,0,0,0,0,-0.0011,-0.0011,-0.0023,-0.0024,-0.0024,-0.0053,-0.0054,-0.0054,-0.0078,-0.0078,-0.0079,-0.0079,-0.0112,-0.0112,-0.0113,0,0,0,0,0,0,0,0,0,0,0,0,0,-0.0025,-0.0011,-0.0023,-0.004,-0.0042,-0.0053,-0.0054,-0.0054,-0.0078,-0.0078,-0.0079,-0.0079,-0.0112,-0.0112,-0.0113,-0.0109,0,0,-0.0116,-0.0116,0,0,0,0,0,0,0,0,-0.0024,-0.0025,-0.0037,-0.0039,-0.0041,-0.0063,-0.0061,-0.0073,-0.0078,-0.0063,-0.0079,-0.0079,-0.0096,-0.0098,-0.0101,-0.011,-0.0112,-0.0116,-0.0116,-0.0117,-0.0117,0,0,0,0,0,0,0,-0.0023,-0.0024,-0.0034,-0.0038,-0.004,-0.0055,-0.0057,-0.0064,-0.0076,-0.0065,-0.0067,-0.0071,-0.0097,-0.0101,-0.0102,-0.0112,-0.0116,-0.0117,-0.0117,-0.0118,-0.0152,-0.0153,0,0,0,0,0,0,-0.0019,-0.0023,-0.0033,-0.0035,-0.0035,-0.0055,-0.0057,-0.0055,-0.0076,-0.008,-0.0071,-0.0072,-0.0099,-0.0101,-0.0104,-0.0112,-0.0117,-0.0118,-0.0118,-0.0152,-0.0152,-0.0153,0,0,0,0,0,0,-0.0019,-0.002,-0.0032,-0.0031,-0.0034,-0.0054,-0.0052,-0.0055,-0.0061,-0.0081,-0.0085,-0.0073,-0.0099,-0.0103,-0.0114,-0.0113,-0.0118,-0.0119,-0.0152,-0.0152,-0.0153,-0.0121,0,0,0,0,0,0,-0.0018,-0.0019,-0.0015,-0.0031,-0.0034,-0.0035,-0.0051,-0.0056,-0.0064,-0.0066,-0.0084,-0.0088,-0.01,-0.0112,-0.0115,-0.0114,-0.012,-0.0151,-0.0152,-0.0153,-0.0121,-0.012,-0.0119,0,0,0,0,0,-0.0018,-0.0008,-0.0014,-0.0016,-0.0028,-0.0035,-0.0038,-0.0054,-0.0063,-0.0062,-0.0079,-0.0087,-0.0119,-0.0113,-0.0116,-0.0116,-0.0151,-0.0152,-0.0152,-0.0122,-0.012,-0.0119,0,0,0,0,0,0,0.0005,-0.001,-0.0018,-0.0011,-0.0022,-0.004,-0.0039,-0.0052,-0.0064,-0.0067,-0.0087,-0.0091,-0.0103,-0.0115,-0.0108,-0.0131,-0.0139,-0.014,-0.0114,-0.0113,-0.0112,-0.0102,-0.012,0,0,0,0,0,0.0011,0.0012,-0.0004,0.0002,-0.0003,-0.0021,-0.0026,-0.0037,-0.0051,-0.0057,-0.0072,-0.0091,-0.0108,-0.0115,-0.0129,-0.0135,-0.015,-0.0141,-0.014,-0.0139,-0.0134,-0.0158,-0.0158,-0.0156,-0.0156,-0.0156,0,0,0.0021,0.0013,0.0014,0.0006,-0.0004,-0.0008,-0.0025,-0.003,-0.0035,-0.0058,-0.0067,-0.0085,-0.0109,-0.012,-0.0127,-0.013,-0.0147,-0.014,-0.0138,-0.0134,-0.0159,-0.0159,-0.0159,-0.0157,-0.0156,-0.0156,0,0,0.0038,0.0036,0.0038,0.003,0.0016,0.0006,0.0005,-0.0012,-0.0021,-0.0031,-0.0054,-0.0071,-0.0092,-0.011,-0.0123,-0.0125,-0.0141,-0.0133,-0.0116,-0.014,-0.014,-0.014,-0.0156,-0.0158,-0.0132,-0.0132,-0.0132,0,0.0049,0.0049,0.0038,0.0036,0.0032,0.0013,0.0014,0.0004,-0.0016,-0.0021,-0.0031,-0.0068,-0.0088,-0.0106,-0.011,-0.0121,-0.0135,-0.0116,-0.0137,-0.0137,-0.0138,-0.0154,-0.0157,-0.013,-0.013,-0.0131,-0.0131,0,0.0059,0.0061,0.0063,0.0053,0.0051,0.005,0.0034,0.003,0.0017,0.0003,-0.0015,-0.0043,-0.0065,-0.0078,-0.0094,-0.011,-0.0118,-0.0131,-0.0135,-0.0136,-0.0154,-0.0157,-0.0128,-0.0129,-0.0129,-0.013,0,0,0.0079,0.0071,0.0072,0.0072,0.006,0.006,0.0056,0.0047,0.0048,0.0024,0.002,-0.0016,-0.003,-0.0046,-0.007,-0.0092,-0.0111,-0.011,-0.0112,-0.0117,-0.0156,-0.0152,-0.0155,-0.0126,-0.0126,-0.0127,-0.0165,0,0.0087,0.009,0.0083,0.0091,0.0092,0.0081,0.0083,0.0074,0.0063,0.0057,0.0023,0.0011,-0.0019,-0.0025,-0.0053,-0.0093,-0.0118,-0.0099,-0.0163,-0.0164,-0.0153,-0.0158,-0.0128,-0.0168,-0.0168,-0.0169,-0.0169,0,0.0093,0.0095,0.0102,0.011,0.0111,0.0116,0.0121,0.012,0.0106,0.0097,0.0077,0.0056,0.0024,-0.0003,-0.0071,-0.0056,-0.0103,-0.0139,-0.0142,-0.0149,-0.0166,-0.017,-0.0175,-0.0175,-0.0174,-0.0174,-0.0174,0,0.0105,0.011,0.0119,0.0119,0.0124,0.0131,0.0136,0.0132,0.0141,0.0126,0.0133,0.0087,0.0075,0.0009,-0.0059,-0.0065,-0.0135,-0.0153,-0.0197,-0.0197,-0.0203,-0.0202,-0.0209,-0.0209,-0.0209,-0.0209,-0.0208,0,0.0111,0.0119,0.0127,0.0132,0.0152,0.0151,0.0173,0.0171,0.0178,0.0196,0.0159,0.0162,0.0078,0.0033,-0.0045,-0.0122,-0.0125,-0.0192,-0.0208,-0.0189,-0.0187,-0.0205,-0.0204,-0.021,-0.021,-0.0209,-0.0209,0,0.0115,0.0119,0.0134,0.0148,0.0157,0.0173,0.0203,0.0221,0.0225,0.0248,0.0249,0.022,0.0165,0.0079,-0.0023,-0.0091,-0.0175,-0.0207,-0.017,-0.0182,-0.0227,-0.0225,-0.0258,-0.0258,-0.0258,-0.0258,-0.0258,0,0.0115,0.0123,0.015,0.0168,0.0175,0.0201,0.0223,0.0239,0.0264,0.0284,0.03,0.0266,0.0232,0.0102,-0.0002,-0.0142,-0.0171,-0.0219,-0.0236,-0.0221,-0.0233,-0.023,-0.0227,-0.0258,-0.0259,-0.0259,-0.0259,0,0.0118,0.013,0.0145,0.0181,0.021,0.0241,0.0277,0.03,0.0326,0.0336,0.0347,0.0286,0.0226,0.0116,0.0011,-0.0097,-0.0189,-0.0221,-0.0222,-0.0239,-0.0223,-0.0233,-0.023,-0.0259,-0.0259,-0.0259,-0.0259,0,0.0125,0.0135,0.0161,0.0191,0.0231,0.0267,0.0287,0.0322,0.0347,0.0376,0.0379,0.0314,0.028,0.014,0.004,-0.0058,-0.0094,-0.0144,-0.015,-0.015,-0.0113,-0.0076,-0.0077,0,0,0,0,0,0.0126,0.0136,0.0168,0.0201,0.0243,0.0261,0.0317,0.0337,0.0369,0.0385,0.0385,0.033,0.0202,0.015,0.0053,0.0016,-0.0126,-0.0104,-0.019,-0.0262,-0.0261,-0.0236,0,0,0,0,0,0,0.0125,0.015,0.0162,0.0203,0.0223,0.0267,0.03,0.0326,0.0339,0.0363,0.0305,0.0286,0.0166,0.0254,0.0043,0.0015,-0.0058,-0.0158,-0.0161,-0.0262,-0.0262,-0.0261,-0.0235,0,0,0,0,0]}]]